Skip Page Navigation
NASA JPL Caltech
NASA Logo - Jet Propulsion Laboratory + View the NASA Portal
+ Center for Near-Earth Object Studies
JPL Home Earth Solar System Stars & Galaxies Technology
JPL Solar System Dynamics
BODIES ORBITS EPHEMERIDES TOOLS PHYSICAL DATA DISCOVERY FAQ SITE MAP
IMPORTANT: The SSD Announcement email list is now available. Major changes are coming in the near future, including possible hostname and/or URL changes. To be notified of such changes, subscribe to this email list.

Please visit this page for more details.


JPL Small-Body Database Browser
Search: [ help ]  
434828 (2006 SX30)
Classification: Mars-crossing Asteroid          SPK-ID: 2434828
Ephemeris | Orbit Diagram | Orbital Elements | Mission Design | Physical Parameters | Discovery Circumstances ]

[ show orbit diagram ]
Orbital Elements at Epoch 2458600.5 (2019-Apr-27.0) TDB
Reference: JPL 7 (heliocentric ecliptic J2000)
 Element Value Uncertainty (1-sigma)   Units 
e .2294618125921609 5.0589e-07  
a 2.146511141346825 1.4534e-07 au
q 1.653968804104114 1.1955e-06 au
i 5.146155192274538 2.0132e-05 deg
node 199.709740293671 9.2128e-05 deg
peri 100.9213409310743 0.00013415 deg
M 30.44787496788953 0.00017879 deg
tp 2458503.347801217211
(2019-Jan-19.84780122)
0.00056105 TDB
period 1148.677587473304
3.14
0.00011667
3.194e-07
d
yr
n .3134038688714003 3.1832e-08 deg/d
Q 2.639053478589535 1.7869e-07 au
  Orbit Determination Parameters
   # obs. used (total)      49  
   data-arc span      4241 days (11.61 yr)  
   first obs. used      2003-09-30  
   last obs. used      2015-05-11  
   planetary ephem.      DE431  
   SB-pert. ephem.      SB431-N16  
   condition code      1  
   norm. resid. RMS      .4944  
   source      ORB  
   producer      Otto Matic  
   solution date      2017-Apr-09 13:42:01  

Additional Information
 Earth MOID = .647837 au 
 Jupiter MOID = 2.60598 au 
 T_jup = 3.669 
[ hide covariance matrix ]
Orbital Elements at Epoch 2456221.5 (2012-Oct-21.0) TDB
Reference: JPL 7 (heliocentric ecliptic J2000)
 Element Value Uncertainty (1-sigma)   Units 
e .229260303429741 5.0547e-07  
q 1.654422927196023 1.1953e-06 au
tp 2456204.573668132193
(2012-Oct-04.07366813)
0.00034657 TDB
node 199.8661437783368 9.213e-05 deg
peri 100.5289131582856 0.00013447 deg
i 5.145210189311118 2.0137e-05 deg
  Orbit Determination Parameters
   # obs. used (total)      49  
   data-arc span      4241 days (11.61 yr)  
   first obs. used      2003-09-30  
   last obs. used      2015-05-11  
   planetary ephem.      DE431  
   SB-pert. ephem.      SB431-N16  
   condition code      1  
   norm. resid. RMS      .4944  
   source      ORB  
   producer      Otto Matic  
   solution date      2017-Apr-09 13:42:01  

Additional Information
 Jupiter MOID = 2.60598 au 
 T_jup = 3.669 
Orbit Covariance (6×6)
  e q tp node peri i
e 2.555046703058991E-13 -6.040924038022504E-13 -1.388207988018097E-10 1.445014092406242E-12 -2.806055434571622E-11 -1.801551088136444E-12
q -6.040924038022504E-13 1.428852842076425E-12 3.322511654614842E-10 -3.506159308420857E-12 6.787272194652408E-11 4.275687445358466E-12
tp -1.388207988018097E-10 3.322511654614842E-10 1.20108749470764E-7 -1.7485238016442E-9 3.235986284036992E-8 1.146528289393698E-9
node 1.445014092406242E-12 -3.506159308420857E-12 -1.7485238016442E-9 8.487965017973338E-9 -8.952811057864484E-9 6.206372433740354E-10
peri -2.806055434571622E-11 6.787272194652408E-11 3.235986284036992E-8 -8.952811057864484E-9 1.808159591338496E-8 -3.710251670115179E-10
i -1.801551088136444E-12 4.275687445358466E-12 1.146528289393698E-9 6.206372433740354E-10 -3.710251670115179E-10 4.055154417145804E-10

Ephemeris | Orbit Diagram | Orbital Elements | Mission Design | Physical Parameters | Discovery Circumstances ]

Physical Parameter Table
Parameter Symbol Value Units Sigma Reference Notes
absolute magnitude H 18.9   n/a MPO408960  

434828 (2006 SX30)          Discovered 2006-Sep-17 by Spacewatch at Kitt Peak
Reference: Last Updated: 2015-06-04
Ephemeris | Orbit Diagram | Orbital Elements | Mission Design | Physical Parameters | Discovery Circumstances ]
ABOUT SSD CREDITS/AWARDS PRIVACY/COPYRIGHT GLOSSARY LINKS
FirstGov 2019-Dec-05 15:53 UT
(server date/time)  
NASA Home Page
Site Manager:   Ryan S. Park
Webmaster  Alan B. Chamberlin